This is the latest recevied weather packets stored in our database for station/object KO4APQ. If no packets are shown the sender has not sent any weather packets the latest 10 day(s).
| Time | Temp. | Humidity | Pressure | Rain* | Wind** | Luminosity | Snow |
|---|---|---|---|---|---|---|---|
| 1777855905 | 16.67° C | 42% | 1016.8 hPa | 0 mm | - | 0 W/m² | - |
| 1777855603 | 16.67° C | 42% | 1016.8 hPa | 0 mm | - | 0 W/m² | - |
| 1777855300 | 16.67° C | 41% | 1016.6 hPa | 0 mm | - | 0 W/m² | - |
| 1777854996 | 17.22° C | 41% | 1016.6 hPa | 0 mm | - | 0 W/m² | - |
| 1777854693 | 17.22° C | 40% | 1016.8 hPa | 0 mm | - | 1 W/m² | - |
| 1777854390 | 17.78° C | 39% | 1016.5 hPa | 0 mm | - | 2 W/m² | - |
| 1777854087 | 17.78° C | 38% | 1016.7 hPa | 0 mm | - | 3 W/m² | - |
| 1777853785 | 17.78° C | 38% | 1016.2 hPa | 0 mm | - | 6 W/m² | - |
| 1777853481 | 17.78° C | 38% | 1016.3 hPa | 0 mm | - | 10 W/m² | - |
| 1777853179 | 18.33° C | 38% | 1016.3 hPa | 0 mm | - | 14 W/m² | - |
| 1777852876 | 18.33° C | 37% | 1016.2 hPa | 0 mm | - | 18 W/m² | - |
| 1777852574 | 18.89° C | 36% | 1016 hPa | 0 mm | - | 22 W/m² | - |
| 1777852270 | 18.89° C | 36% | 1016.1 hPa | 0 mm | - | 27 W/m² | - |
| 1777851968 | 19.44° C | 36% | 1016.1 hPa | 0 mm | - | 34 W/m² | - |
| 1777851666 | 19.44° C | 34% | 1016.2 hPa | 0 mm | - | 41 W/m² | - |
| 1777851363 | 20° C | 33% | 1016.1 hPa | 0 mm | - | 48 W/m² | - |
| 1777851058 | 20° C | 34% | 1016.1 hPa | 0 mm | - | 56 W/m² | - |
| 1777850755 | 20° C | 33% | 1016.1 hPa | 0 mm | - | 63 W/m² | - |
| 1777850453 | 20° C | 33% | 1016.2 hPa | 0 mm | - | 74 W/m² | - |
| 1777850151 | 20° C | 33% | 1016.2 hPa | 0 mm | - | 85 W/m² | - |
| 1777849847 | 20.56° C | 33% | 1016.2 hPa | 0 mm | - | 97 W/m² | - |
| 1777849544 | 20.56° C | 33% | 1016.3 hPa | 0 mm | - | 112 W/m² | - |
| 1777849241 | 20.56° C | 33% | 1016.2 hPa | 0 mm | - | 125 W/m² | - |
| 1777848938 | 20.56° C | 33% | 1016.3 hPa | 0 mm | - | 140 W/m² | - |
| 1777848633 | 21.11° C | 33% | 1016.2 hPa | 0 mm | - | 156 W/m² | - |
* Rain latest hour (hover to see other rain measurements)
** Current wind speed in m/s (hover to see current wind gust speed)